Location: Complexul Astronomic Baia Mare
(47.6577°N, 23.5639°E)
Time: 13:28:24
(UTC+03:00)

ISS - Pass Details

Date: 06 June 2017
Orbit: 401 x 408 km, 51.6° (Epoch: 23 June)

Event Time Altitude Azimuth Distance (km) Brightness Sun altitude
Rises 22:51:01 0° 293° (WNW) 2,340 1.1 -11.6°
Reaches altitude 10° 22:53:08 10° 289° (WNW) 1,476 -0.1 -11.8°
Maximum altitude 22:56:23 56° 211° (SSW) 492 -3.6 -12.1°
Enters shadow 22:58:16 22° 139° (SE) 946 -2.6 -12.3°
